Tracking 19638 objects as of 19-Apr-2019
HD Live streaming from Space Station
objects crossing your sky now

COSMOS 1818 COOLANT

Track COSMOS 1818 COOLANT now!
10-day predictions


NORAD ID: 36939
Int'l Code: 1987-011T
Perigee: 769.4 km
Apogee: 799.5 km
Inclination: 65.0 °
Period: 100.4 minutes
Semi major axis: 7155 km
RCS: 0.0022 m2 (small)
Launch date: February 1, 1987
Source: Commonwealth of Independent States (former USSR) (CIS)
Launch site: TYURATAM MISSILE AND SPACE COMPLEX (TTMTR)

Note: This is SATELLITE DEBRIS
aabbcc
Your satellite tracking list
Your tracking list is empty




NASA's NSSDC Master Catalog

Two Line Element Set (TLE):
1 36939U 87011T   19106.30178641  .00000052  00000-0  54090-4 0  9993
2 36939  65.0183 356.3227 0021038 257.5937 102.2794 14.34332707527299
Source of the keplerian elements: AFSPC